Time,TemperatureF,DewpointF,PressureIn,WindDirection,WindDirectionDegrees,WindSpeedMPH,WindSpeedGustMPH,Humidity,HourlyPrecipIn,Conditions,Clouds,dailyrainin,SoftwareType,DateUTC
2013-06-04 00:00:00,72.2,70.4,29.93,WNW,287,1.0,1.0,94,0.00,,,2.21,Wunderground v.1.15,2013-06-04 04:00:00,
2013-06-04 00:05:00,72.2,70.4,29.92,WNW,286,0.0,1.0,94,0.00,,,2.21,Wunderground v.1.15,2013-06-04 04:05:00,
2013-06-04 00:10:00,72.2,70.4,29.92,SW,221,0.0,1.0,94,0.00,,,2.21,Wunderground v.1.15,2013-06-04 04:10:00,
2013-06-04 00:15:00,72.2,70.4,29.92,SW,221,0.0,1.0,94,0.00,,,2.21,Wunderground v.1.15,2013-06-04 04:15:00,
2013-06-04 00:20:00,72.2,70.4,29.92,South,190,0.0,1.0,94,0.00,,,2.21,Wunderground v.1.15,2013-06-04 04:20:00,
2013-06-04 00:25:00,72.1,70.3,29.92,South,190,0.0,1.0,94,0.00,,,2.21,Wunderground v.1.15,2013-06-04 04:25:00,
2013-06-04 00:30:00,72.1,70.3,29.92,South,191,0.0,1.0,94,0.00,,,2.21,Wunderground v.1.15,2013-06-04 04:30:00,
2013-06-04 00:35:00,72.1,70.3,29.92,West,269,0.0,1.0,94,0.00,,,2.21,Wunderground v.1.15,2013-06-04 04:35:00,
2013-06-04 00:40:00,72.1,70.3,29.92,WSW,242,0.0,1.0,94,0.00,,,2.21,Wunderground v.1.15,2013-06-04 04:40:00,
2013-06-04 00:45:00,72.0,70.2,29.92,WSW,242,0.0,1.0,94,0.00,,,2.21,Wunderground v.1.15,2013-06-04 04:45:00,
2013-06-04 00:50:00,72.0,70.2,29.92,WSW,242,0.0,1.0,94,0.00,,,2.21,Wunderground v.1.15,2013-06-04 04:50:00,
2013-06-04 00:55:00,72.0,70.2,29.92,WSW,242,0.0,1.0,94,0.00,,,2.21,Wunderground v.1.15,2013-06-04 04:55:00,
2013-06-04 01:00:00,72.0,70.2,29.91,West,260,0.0,2.0,94,0.00,,,2.21,Wunderground v.1.15,2013-06-04 05:00:00,
2013-06-04 01:05:00,72.0,70.2,29.91,West,274,0.0,2.0,94,0.00,,,0.00,Wunderground v.1.15,2013-06-04 05:05:00,
2013-06-04 01:10:00,72.0,70.2,29.91,WSW,238,0.0,2.0,94,0.00,,,0.00,Wunderground v.1.15,2013-06-04 05:10:00,
2013-06-04 01:15:00,72.0,70.2,29.91,WSW,258,0.0,2.0,94,0.00,,,0.00,Wunderground v.1.15,2013-06-04 05:15:00,
2013-06-04 01:20:00,72.0,70.2,29.91,West,263,1.0,2.0,94,0.00,,,0.00,Wunderground v.1.15,2013-06-04 05:20:00,
2013-06-04 01:25:00,72.0,70.2,29.91,NW,314,2.0,2.0,94,0.00,,,0.00,Wunderground v.1.15,2013-06-04 05:25:00,
2013-06-04 01:30:00,71.8,70.0,29.91,WNW,289,2.0,5.0,94,0.00,,,0.00,Wunderground v.1.15,2013-06-04 05:30:00,
2013-06-04 01:35:00,71.7,69.9,29.91,NW,326,3.0,5.0,94,0.00,,,0.00,Wunderground v.1.15,2013-06-04 05:35:00,
2013-06-04 01:40:00,71.5,69.7,29.91,WNW,300,4.0,5.0,94,0.00,,,0.00,Wunderground v.1.15,2013-06-04 05:40:00,
2013-06-04 01:45:00,71.4,69.6,29.91,North,349,4.0,5.0,94,0.00,,,0.00,Wunderground v.1.15,2013-06-04 05:45:00,
2013-06-04 01:50:00,71.2,69.4,29.91,North,7,3.0,3.0,94,0.00,,,0.00,Wunderground v.1.15,2013-06-04 05:50:00,
2013-06-04 01:55:00,71.0,69.2,29.91,NNW,331,2.0,3.0,94,0.00,,,0.00,Wunderground v.1.15,2013-06-04 05:55:00,
2013-06-04 02:00:00,70.9,69.1,29.91,WNW,294,2.0,6.0,94,0.00,,,0.00,Wunderground v.1.15,2013-06-04 06:00:00,
2013-06-04 02:05:00,70.7,68.9,29.91,NNW,330,2.0,6.0,94,0.00,,,0.00,Wunderground v.1.15,2013-06-04 06:05:00,
2013-06-04 02:10:00,70.6,68.8,29.91,NNW,331,3.0,3.0,94,0.00,,,0.00,Wunderground v.1.15,2013-06-04 06:10:00,
2013-06-04 02:15:00,70.6,68.8,29.91,WNW,297,2.0,6.0,94,0.00,,,0.00,Wunderground v.1.15,2013-06-04 06:15:00,
2013-06-04 02:20:00,70.5,68.7,29.91,NW,309,1.0,1.0,94,0.00,,,0.00,Wunderground v.1.15,2013-06-04 06:20:00,
2013-06-04 02:25:00,70.2,68.4,29.91,NE,34,2.0,3.0,94,0.00,,,0.00,Wunderground v.1.15,2013-06-04 06:25:00,
2013-06-04 02:30:00,70.1,68.3,29.90,NNW,335,3.0,6.0,94,0.00,,,0.00,Wunderground v.1.15,2013-06-04 06:30:00,
2013-06-04 02:35:00,70.0,67.9,29.90,NW,325,3.0,6.0,93,0.00,,,0.00,Wunderground v.1.15,2013-06-04 06:35:00,
2013-06-04 02:40:00,69.9,67.8,29.90,North,351,3.0,3.0,93,0.00,,,0.00,Wunderground v.1.15,2013-06-04 06:40:00,
2013-06-04 02:45:00,69.8,68.0,29.90,NNW,333,2.0,6.0,94,0.00,,,0.00,Wunderground v.1.15,2013-06-04 06:45:00,
2013-06-04 02:50:00,69.7,67.6,29.90,NW,320,2.0,6.0,93,0.00,,,0.00,Wunderground v.1.15,2013-06-04 06:50:00,
2013-06-04 02:55:00,69.7,67.9,29.90,NW,315,2.0,6.0,94,0.00,,,0.00,Wunderground v.1.15,2013-06-04 06:55:00,
2013-06-04 03:00:00,69.7,67.9,29.90,NNW,346,2.0,2.0,94,0.00,,,0.00,Wunderground v.1.15,2013-06-04 07:00:00,
2013-06-04 03:05:00,69.8,68.0,29.90,North,7,2.0,4.0,94,0.00,,,0.00,Wunderground v.1.15,2013-06-04 07:05:00,
2013-06-04 03:10:00,69.8,68.0,29.90,NNW,346,2.0,2.0,94,0.00,,,0.00,Wunderground v.1.15,2013-06-04 07:10:00,
2013-06-04 03:15:00,69.8,68.0,29.90,North,4,2.0,4.0,94,0.00,,,0.00,Wunderground v.1.15,2013-06-04 07:15:00,
2013-06-04 03:20:00,69.9,68.1,29.89,NW,315,2.0,6.0,94,0.00,,,0.00,Wunderground v.1.15,2013-06-04 07:20:00,
2013-06-04 03:25:00,69.9,68.1,29.89,NNW,328,2.0,6.0,94,0.00,,,0.00,Wunderground v.1.15,2013-06-04 07:25:00,
2013-06-04 03:30:00,69.9,68.1,29.89,NW,309,1.0,1.0,94,0.00,,,0.00,Wunderground v.1.15,2013-06-04 07:30:00,
2013-06-04 03:35:00,69.9,68.1,29.89,NW,309,1.0,6.0,94,0.00,,,0.00,Wunderground v.1.15,2013-06-04 07:35:00,
2013-06-04 03:40:00,70.0,68.2,29.89,North,351,1.0,6.0,94,0.00,,,0.00,Wunderground v.1.15,2013-06-04 07:40:00,
2013-06-04 03:45:00,70.0,68.2,29.90,NNW,341,1.0,6.0,94,0.00,,,0.00,Wunderground v.1.15,2013-06-04 07:45:00,
2013-06-04 03:55:00,70.1,68.3,29.90,NW,315,1.0,6.0,94,0.00,,,0.00,Wunderground v.1.15,2013-06-04 07:55:00,
2013-06-04 04:00:00,70.0,68.2,29.90,NNW,335,1.0,5.0,94,0.00,,,0.00,Wunderground v.1.15,2013-06-04 08:00:00,
2013-06-04 04:05:00,69.9,68.1,29.90,NNW,343,2.0,5.0,94,0.00,,,0.00,Wunderground v.1.15,2013-06-04 08:05:00,
2013-06-04 04:10:00,69.9,68.1,29.90,NW,304,1.0,1.0,94,0.00,,,0.00,Wunderground v.1.15,2013-06-04 08:10:00,
2013-06-04 04:15:00,70.0,68.2,29.89,NW,325,1.0,2.0,94,0.00,,,0.00,Wunderground v.1.15,2013-06-04 08:15:00,
2013-06-04 04:20:00,70.0,68.2,29.89,North,358,2.0,5.0,94,0.00,,,0.00,Wunderground v.1.15,2013-06-04 08:20:00,
2013-06-04 04:25:00,69.9,68.1,29.89,NNW,335,3.0,5.0,94,0.00,,,0.00,Wunderground v.1.15,2013-06-04 08:25:00,
2013-06-04 04:30:00,69.7,67.9,29.89,NW,323,3.0,5.0,94,0.00,,,0.00,Wunderground v.1.15,2013-06-04 08:30:00,
2013-06-04 04:35:00,69.6,67.8,29.89,NW,309,2.0,5.0,94,0.00,,,0.00,Wunderground v.1.15,2013-06-04 08:35:00,
2013-06-04 04:40:00,69.5,67.7,29.89,NW,314,2.0,5.0,94,0.00,,,0.00,Wunderground v.1.15,2013-06-04 08:40:00,
2013-06-04 04:45:00,69.4,67.6,29.90,NNW,341,2.0,5.0,94,0.00,,,0.00,Wunderground v.1.15,2013-06-04 08:45:00,
2013-06-04 04:50:00,69.3,67.5,29.90,North,350,2.0,2.0,94,0.00,,,0.00,Wunderground v.1.15,2013-06-04 08:50:00,
2013-06-04 04:55:00,69.2,67.4,29.90,North,8,2.0,4.0,94,0.00,,,0.00,Wunderground v.1.15,2013-06-04 08:55:00,
2013-06-04 05:00:00,69.1,67.3,29.90,NNE,16,2.0,6.0,94,0.00,,,0.00,Wunderground v.1.15,2013-06-04 09:00:00,
2013-06-04 05:05:00,68.8,67.0,29.90,NNW,347,3.0,6.0,94,0.00,,,0.00,Wunderground v.1.15,2013-06-04 09:05:00,
2013-06-04 05:10:00,68.5,66.4,29.90,North,11,3.0,6.0,93,0.00,,,0.00,Wunderground v.1.15,2013-06-04 09:10:00,
2013-06-04 05:15:00,68.4,66.3,29.91,NNE,18,3.0,6.0,93,0.00,,,0.00,Wunderground v.1.15,2013-06-04 09:15:00,
2013-06-04 05:20:00,68.2,66.1,29.91,NNE,22,3.0,3.0,93,0.00,,,0.00,Wunderground v.1.15,2013-06-04 09:20:00,
2013-06-04 05:25:00,68.1,66.0,29.91,North,11,2.0,6.0,93,0.00,,,0.01,Wunderground v.1.15,2013-06-04 09:25:00,
2013-06-04 05:30:00,67.9,65.8,29.92,North,11,2.0,6.0,93,0.00,,,0.01,Wunderground v.1.15,2013-06-04 09:30:00,
2013-06-04 05:40:00,67.8,66.0,29.92,North,8,0.0,6.0,94,0.00,,,0.01,Wunderground v.1.15,2013-06-04 09:40:00,
2013-06-04 05:45:00,67.8,66.0,29.92,NW,326,0.0,6.0,94,0.00,,,0.01,Wunderground v.1.15,2013-06-04 09:45:00,
2013-06-04 05:50:00,67.8,66.0,29.92,WNW,295,0.0,6.0,94,0.00,,,0.01,Wunderground v.1.15,2013-06-04 09:50:00,
2013-06-04 05:55:00,67.8,66.0,29.92,WNW,288,0.0,6.0,94,0.00,,,0.01,Wunderground v.1.15,2013-06-04 09:55:00,
2013-06-04 06:00:00,67.8,66.0,29.93,WSW,246,0.0,6.0,94,0.00,,,0.01,Wunderground v.1.15,2013-06-04 10:00:00,
2013-06-04 06:05:00,67.9,66.1,29.93,WNW,295,0.0,6.0,94,0.00,,,0.01,Wunderground v.1.15,2013-06-04 10:05:00,
2013-06-04 06:10:00,68.0,66.2,29.93,WNW,291,1.0,6.0,94,0.00,,,0.01,Wunderground v.1.15,2013-06-04 10:10:00,
2013-06-04 06:15:00,68.0,66.2,29.93,WNW,285,1.0,6.0,94,0.00,,,0.01,Wunderground v.1.15,2013-06-04 10:15:00,
2013-06-04 06:20:00,68.1,66.3,29.93,NW,308,2.0,6.0,94,0.00,,,0.01,Wunderground v.1.15,2013-06-04 10:20:00,
2013-06-04 06:25:00,68.2,66.4,29.93,WNW,283,2.0,6.0,94,0.00,,,0.01,Wunderground v.1.15,2013-06-04 10:25:00,
2013-06-04 06:30:00,68.1,66.3,29.93,NW,304,2.0,6.0,94,0.00,,,0.01,Wunderground v.1.15,2013-06-04 10:30:00,
2013-06-04 06:35:00,67.9,66.1,29.93,NW,315,4.0,6.0,94,0.00,,,0.01,Wunderground v.1.15,2013-06-04 10:35:00,
2013-06-04 06:40:00,67.8,66.0,29.93,NW,316,4.0,6.0,94,0.00,,,0.01,Wunderground v.1.15,2013-06-04 10:40:00,
2013-06-04 06:45:00,67.9,66.1,29.93,NW,309,3.0,6.0,94,0.00,,,0.01,Wunderground v.1.15,2013-06-04 10:45:00,
2013-06-04 06:50:00,67.8,66.0,29.93,North,351,2.0,6.0,94,0.00,,,0.01,Wunderground v.1.15,2013-06-04 10:50:00,
2013-06-04 06:55:00,67.6,65.8,29.93,North,349,3.0,6.0,94,0.00,,,0.01,Wunderground v.1.15,2013-06-04 10:55:00,
2013-06-04 07:00:00,67.5,65.7,29.93,NW,309,4.0,4.0,94,0.00,,,0.01,Wunderground v.1.15,2013-06-04 11:00:00,
2013-06-04 07:05:00,67.5,65.7,29.93,NNW,330,4.0,5.0,94,0.00,,,0.01,Wunderground v.1.15,2013-06-04 11:05:00,
2013-06-04 07:10:00,67.5,65.7,29.93,North,354,4.0,6.0,94,0.00,,,0.01,Wunderground v.1.15,2013-06-04 11:10:00,
2013-06-04 07:15:00,67.6,65.8,29.93,North,353,5.0,6.0,94,0.00,,,0.01,Wunderground v.1.15,2013-06-04 11:15:00,
2013-06-04 07:20:00,67.8,66.0,29.94,NNE,25,4.0,6.0,94,0.00,,,0.01,Wunderground v.1.15,2013-06-04 11:20:00,
2013-06-04 07:25:00,67.7,65.9,29.94,NW,326,4.0,6.0,94,0.00,,,0.01,Wunderground v.1.15,2013-06-04 11:25:00,
2013-06-04 07:30:00,67.7,65.9,29.94,NNE,17,4.0,6.0,94,0.00,,,0.01,Wunderground v.1.15,2013-06-04 11:30:00,
2013-06-04 07:35:00,67.7,65.9,29.94,NNW,348,4.0,6.0,94,0.00,,,0.01,Wunderground v.1.15,2013-06-04 11:35:00,
2013-06-04 07:40:00,67.7,65.9,29.94,NNE,20,5.0,6.0,94,0.00,,,0.01,Wunderground v.1.15,2013-06-04 11:40:00,
2013-06-04 07:45:00,67.9,66.1,29.94,NE,40,5.0,6.0,94,0.00,,,0.01,Wunderground v.1.15,2013-06-04 11:45:00,
2013-06-04 07:50:00,68.2,66.4,29.95,NNE,28,5.0,6.0,94,0.00,,,0.01,Wunderground v.1.15,2013-06-04 11:50:00,
2013-06-04 07:55:00,68.4,66.6,29.94,North,8,5.0,6.0,94,0.00,,,0.01,Wunderground v.1.15,2013-06-04 11:55:00,
2013-06-04 08:00:00,68.7,66.9,29.94,NNE,13,5.0,5.0,94,0.00,,,0.01,Wunderground v.1.15,2013-06-04 12:00:00,
2013-06-04 08:05:00,68.9,67.1,29.94,North,351,5.0,8.0,94,0.00,,,0.01,Wunderground v.1.15,2013-06-04 12:05:00,
2013-06-04 08:10:00,69.4,67.6,29.94,NNE,20,5.0,8.0,94,0.00,,,0.01,Wunderground v.1.15,2013-06-04 12:10:00,
2013-06-04 08:15:00,69.8,68.0,29.95,NNE,20,4.0,8.0,94,0.00,,,0.01,Wunderground v.1.15,2013-06-04 12:15:00,
2013-06-04 08:20:00,70.1,68.0,29.95,East,91,4.0,4.0,93,0.00,,,0.01,Wunderground v.1.15,2013-06-04 12:20:00,
2013-06-04 08:25:00,70.4,68.3,29.94,ENE,69,3.0,8.0,93,0.00,,,0.01,Wunderground v.1.15,2013-06-04 12:25:00,
2013-06-04 08:30:00,70.6,68.5,29.94,North,6,4.0,8.0,93,0.00,,,0.01,Wunderground v.1.15,2013-06-04 12:30:00,
2013-06-04 08:35:00,71.0,68.9,29.95,North,7,5.0,8.0,93,0.00,,,0.01,Wunderground v.1.15,2013-06-04 12:35:00,
2013-06-04 08:40:00,71.2,69.1,29.95,NE,44,5.0,5.0,93,0.00,,,0.01,Wunderground v.1.15,2013-06-04 12:40:00,
2013-06-04 08:45:00,71.5,69.4,29.96,NE,37,5.0,8.0,93,0.00,,,0.01,Wunderground v.1.15,2013-06-04 12:45:00,
2013-06-04 08:50:00,71.7,69.3,29.96,North,8,5.0,8.0,92,0.00,,,0.01,Wunderground v.1.15,2013-06-04 12:50:00,
2013-06-04 08:55:00,71.9,69.1,29.96,NNE,13,6.0,8.0,91,0.00,,,0.01,Wunderground v.1.15,2013-06-04 12:55:00,
2013-06-04 09:00:00,72.4,69.6,29.97,North,354,5.0,5.0,91,0.00,,,0.01,Wunderground v.1.15,2013-06-04 13:00:00,
2013-06-04 09:05:00,72.7,69.6,29.97,NNW,345,4.0,9.0,90,0.00,,,0.01,Wunderground v.1.15,2013-06-04 13:05:00,
2013-06-04 09:10:00,72.8,69.7,29.98,NNW,331,4.0,9.0,90,0.00,,,0.01,Wunderground v.1.15,2013-06-04 13:10:00,
2013-06-04 09:15:00,72.4,69.0,29.98,NNE,24,5.0,9.0,89,0.00,,,0.01,Wunderground v.1.15,2013-06-04 13:15:00,
2013-06-04 09:20:00,72.1,68.7,29.98,North,360,5.0,9.0,89,0.00,,,0.01,Wunderground v.1.15,2013-06-04 13:20:00,
2013-06-04 09:25:00,72.1,69.0,29.98,North,352,5.0,9.0,90,0.00,,,0.01,Wunderground v.1.15,2013-06-04 13:25:00,
2013-06-04 09:30:00,72.2,68.8,29.99,NNE,20,4.0,4.0,89,0.00,,,0.01,Wunderground v.1.15,2013-06-04 13:30:00,
2013-06-04 09:35:00,71.9,68.5,29.99,NE,48,4.0,9.0,89,0.00,,,0.01,Wunderground v.1.15,2013-06-04 13:35:00,
2013-06-04 09:40:00,71.8,68.4,29.99,NNW,335,5.0,5.0,89,0.00,,,0.01,Wunderground v.1.15,2013-06-04 13:40:00,
2013-06-04 09:45:00,71.8,68.7,29.99,NNE,27,4.0,9.0,90,0.00,,,0.01,Wunderground v.1.15,2013-06-04 13:45:00,
2013-06-04 09:50:00,71.6,68.2,29.99,North,350,5.0,5.0,89,0.00,,,0.01,Wunderground v.1.15,2013-06-04 13:50:00,
2013-06-04 09:55:00,71.5,68.4,29.99,NNW,340,5.0,9.0,90,0.00,,,0.01,Wunderground v.1.15,2013-06-04 13:55:00,
2013-06-04 10:00:00,71.7,68.6,30.00,NE,43,5.0,5.0,90,0.00,,,0.01,Wunderground v.1.15,2013-06-04 14:00:00,
2013-06-04 10:05:00,71.7,68.6,29.99,ENE,64,5.0,9.0,90,0.00,,,0.01,Wunderground v.1.15,2013-06-04 14:05:00,
2013-06-04 10:10:00,71.9,68.8,30.00,NNW,342,4.0,4.0,90,0.00,,,0.01,Wunderground v.1.15,2013-06-04 14:10:00,
2013-06-04 10:15:00,72.1,68.7,30.00,ENE,74,3.0,5.0,89,0.00,,,0.01,Wunderground v.1.15,2013-06-04 14:15:00,
2013-06-04 10:20:00,72.1,68.7,30.00,NNE,26,4.0,9.0,89,0.00,,,0.01,Wunderground v.1.15,2013-06-04 14:20:00,
2013-06-04 10:25:00,72.2,68.8,30.00,East,79,4.0,9.0,89,0.00,,,0.01,Wunderground v.1.15,2013-06-04 14:25:00,
2013-06-04 10:30:00,72.3,68.9,30.00,ENE,60,4.0,9.0,89,0.00,,,0.01,Wunderground v.1.15,2013-06-04 14:30:00,
2013-06-04 10:35:00,72.3,68.9,30.00,ENE,63,4.0,9.0,89,0.00,,,0.01,Wunderground v.1.15,2013-06-04 14:35:00,
2013-06-04 10:40:00,72.3,68.9,30.01,North,11,4.0,4.0,89,0.00,,,0.01,Wunderground v.1.15,2013-06-04 14:40:00,
2013-06-04 10:45:00,72.4,68.6,30.01,NE,50,4.0,6.0,88,0.00,,,0.01,Wunderground v.1.15,2013-06-04 14:45:00,
2013-06-04 10:50:00,72.4,69.0,30.01,NNE,26,4.0,4.0,89,0.00,,,0.01,Wunderground v.1.15,2013-06-04 14:50:00,
2013-06-04 10:55:00,72.5,69.1,30.01,ENE,66,4.0,9.0,89,0.00,,,0.01,Wunderground v.1.15,2013-06-04 14:55:00,
2013-06-04 11:00:00,72.7,68.9,30.01,NNE,30,4.0,9.0,88,0.00,,,0.01,Wunderground v.1.15,2013-06-04 15:00:00,
2013-06-04 11:05:00,72.8,69.0,30.01,ENE,78,4.0,9.0,88,0.00,,,0.01,Wunderground v.1.15,2013-06-04 15:05:00,
2013-06-04 11:10:00,73.0,69.2,30.01,ENE,63,4.0,9.0,88,0.00,,,0.01,Wunderground v.1.15,2013-06-04 15:10:00,
2013-06-04 11:15:00,73.1,69.3,30.01,ESE,111,4.0,9.0,88,0.00,,,0.01,Wunderground v.1.15,2013-06-04 15:15:00,
2013-06-04 11:20:00,73.2,69.4,30.01,East,93,3.0,9.0,88,0.00,,,0.01,Wunderground v.1.15,2013-06-04 15:20:00,
2013-06-04 11:25:00,73.3,69.5,30.01,East,82,3.0,9.0,88,0.00,,,0.01,Wunderground v.1.15,2013-06-04 15:25:00,
2013-06-04 11:30:00,73.4,69.6,30.01,ESE,120,3.0,3.0,88,0.00,,,0.01,Wunderground v.1.15,2013-06-04 15:30:00,
2013-06-04 11:35:00,73.4,69.6,30.01,East,82,2.0,9.0,88,0.00,,,0.01,Wunderground v.1.15,2013-06-04 15:35:00,
2013-06-04 11:40:00,73.3,69.5,30.01,East,80,3.0,3.0,88,0.00,,,0.01,Wunderground v.1.15,2013-06-04 15:40:00,
2013-06-04 11:45:00,73.6,69.8,30.01,NE,35,3.0,9.0,88,0.00,,,0.01,Wunderground v.1.15,2013-06-04 15:45:00,
2013-06-04 11:50:00,73.7,69.6,30.02,ENE,65,3.0,3.0,87,0.00,,,0.01,Wunderground v.1.15,2013-06-04 15:50:00,
2013-06-04 11:55:00,73.9,69.8,30.02,NNE,17,4.0,4.0,87,0.00,,,0.01,Wunderground v.1.15,2013-06-04 15:55:00,
2013-06-04 12:00:00,74.0,69.9,30.02,NNE,23,4.0,4.0,87,0.00,,,0.01,Wunderground v.1.15,2013-06-04 16:00:00,
2013-06-04 12:05:00,74.2,70.1,30.02,ENE,70,3.0,8.0,87,0.00,,,0.01,Wunderground v.1.15,2013-06-04 16:05:00,
2013-06-04 12:10:00,74.5,70.4,30.02,NE,53,3.0,8.0,87,0.00,,,0.01,Wunderground v.1.15,2013-06-04 16:10:00,
2013-06-04 12:15:00,74.7,70.6,30.01,NNE,12,3.0,8.0,87,0.00,,,0.01,Wunderground v.1.15,2013-06-04 16:15:00,
2013-06-04 12:20:00,75.2,70.7,30.01,NNE,27,3.0,8.0,86,0.00,,,0.01,Wunderground v.1.15,2013-06-04 16:20:00,
2013-06-04 12:25:00,75.5,70.7,30.01,ENE,65,3.0,8.0,85,0.00,,,0.01,Wunderground v.1.15,2013-06-04 16:25:00,
2013-06-04 12:30:00,75.5,70.7,30.01,NNE,30,3.0,8.0,85,0.00,,,0.01,Wunderground v.1.15,2013-06-04 16:30:00,
2013-06-04 12:35:00,75.5,70.7,30.01,NNE,22,4.0,8.0,85,0.00,,,0.01,Wunderground v.1.15,2013-06-04 16:35:00,
2013-06-04 12:40:00,75.7,71.2,30.01,NNE,22,4.0,4.0,86,0.00,,,0.01,Wunderground v.1.15,2013-06-04 16:40:00,
2013-06-04 12:45:00,75.9,71.1,30.01,NNW,339,4.0,8.0,85,0.00,,,0.01,Wunderground v.1.15,2013-06-04 16:45:00,
2013-06-04 12:50:00,76.0,71.2,30.01,East,93,4.0,8.0,85,0.00,,,0.01,Wunderground v.1.15,2013-06-04 16:50:00,
2013-06-04 12:55:00,76.2,71.4,30.01,NNW,340,4.0,8.0,85,0.00,,,0.01,Wunderground v.1.15,2013-06-04 16:55:00,
2013-06-04 13:00:00,76.2,71.4,30.01,East,82,4.0,9.0,85,0.00,,,0.01,Wunderground v.1.15,2013-06-04 17:00:00,
2013-06-04 13:10:00,76.1,71.6,30.01,West,277,4.0,4.0,86,0.00,,,0.01,Wunderground v.1.15,2013-06-04 17:10:00,
2013-06-04 13:15:00,76.3,71.5,30.01,NE,56,4.0,9.0,85,0.00,,,0.01,Wunderground v.1.15,2013-06-04 17:15:00,
2013-06-04 13:20:00,76.1,71.3,30.01,NE,54,4.0,9.0,85,0.00,,,0.01,Wunderground v.1.15,2013-06-04 17:20:00,
2013-06-04 13:25:00,76.0,71.2,30.01,ENE,77,5.0,9.0,85,0.00,,,0.01,Wunderground v.1.15,2013-06-04 17:25:00,
2013-06-04 13:30:00,76.2,71.4,30.01,ENE,74,5.0,9.0,85,0.00,,,0.01,Wunderground v.1.15,2013-06-04 17:30:00,
2013-06-04 13:35:00,76.0,71.2,30.01,East,99,4.0,9.0,85,0.00,,,0.01,Wunderground v.1.15,2013-06-04 17:35:00,
2013-06-04 13:40:00,75.7,71.2,30.01,SE,139,3.0,3.0,86,0.00,,,0.01,Wunderground v.1.15,2013-06-04 17:40:00,
2013-06-04 13:45:00,75.7,70.9,30.01,SE,129,3.0,4.0,85,0.00,,,0.01,Wunderground v.1.15,2013-06-04 17:45:00,
2013-06-04 13:50:00,75.7,71.2,30.01,ESE,116,4.0,9.0,86,0.00,,,0.01,Wunderground v.1.15,2013-06-04 17:50:00,
2013-06-04 13:55:00,76.0,71.5,30.01,East,101,4.0,9.0,86,0.00,,,0.01,Wunderground v.1.15,2013-06-04 17:55:00,
2013-06-04 14:00:00,76.3,71.5,30.00,ESE,118,4.0,11.0,85,0.00,,,0.01,Wunderground v.1.15,2013-06-04 18:00:00,
2013-06-04 14:05:00,76.2,71.4,30.00,SE,124,5.0,11.0,85,0.00,,,0.01,Wunderground v.1.15,2013-06-04 18:05:00,
2013-06-04 14:10:00,76.4,71.9,30.00,East,91,5.0,11.0,86,0.00,,,0.01,Wunderground v.1.15,2013-06-04 18:10:00,
2013-06-04 14:15:00,76.3,71.5,29.99,SE,129,5.0,11.0,85,0.00,,,0.01,Wunderground v.1.15,2013-06-04 18:15:00,
2013-06-04 14:20:00,76.3,71.5,29.99,SE,139,5.0,5.0,85,0.00,,,0.01,Wunderground v.1.15,2013-06-04 18:20:00,
2013-06-04 14:25:00,76.4,71.6,30.00,ESE,117,5.0,11.0,85,0.00,,,0.01,Wunderground v.1.15,2013-06-04 18:25:00,
2013-06-04 14:30:00,77.2,72.0,30.00,SSE,151,3.0,11.0,84,0.00,,,0.01,Wunderground v.1.15,2013-06-04 18:30:00,
2013-06-04 14:35:00,77.8,72.2,30.00,SE,136,2.0,11.0,83,0.00,,,0.01,Wunderground v.1.15,2013-06-04 18:35:00,
2013-06-04 14:40:00,78.7,72.7,30.00,SSE,153,2.0,11.0,82,0.00,,,0.01,Wunderground v.1.15,2013-06-04 18:40:00,
2013-06-04 14:45:00,79.5,73.2,30.00,SSE,162,2.0,11.0,81,0.00,,,0.01,Wunderground v.1.15,2013-06-04 18:45:00,
2013-06-04 14:50:00,79.9,73.2,30.00,SSE,160,2.0,11.0,80,0.00,,,0.01,Wunderground v.1.15,2013-06-04 18:50:00,
2013-06-04 14:55:00,79.9,73.2,30.00,SSE,164,2.0,11.0,80,0.00,,,0.01,Wunderground v.1.15,2013-06-04 18:55:00,
2013-06-04 15:00:00,79.5,73.2,30.00,ESE,108,2.0,8.0,81,0.00,,,0.01,Wunderground v.1.15,2013-06-04 19:00:00,
2013-06-04 15:10:00,79.0,72.7,29.99,SSE,160,3.0,8.0,81,0.00,,,0.01,Wunderground v.1.15,2013-06-04 19:10:00,
2013-06-04 15:15:00,79.1,72.8,29.99,SSE,148,3.0,8.0,81,0.00,,,0.01,Wunderground v.1.15,2013-06-04 19:15:00,
2013-06-04 15:20:00,79.6,73.3,29.99,South,173,3.0,8.0,81,0.00,,,0.01,Wunderground v.1.15,2013-06-04 19:20:00,
2013-06-04 15:25:00,79.7,73.0,29.99,SSW,198,3.0,8.0,80,0.00,,,0.01,Wunderground v.1.15,2013-06-04 19:25:00,
2013-06-04 15:30:00,79.7,73.3,29.98,South,181,4.0,4.0,81,0.00,,,0.01,Wunderground v.1.15,2013-06-04 19:30:00,
2013-06-04 15:35:00,79.5,72.8,29.98,SSW,204,4.0,8.0,80,0.00,,,0.01,Wunderground v.1.15,2013-06-04 19:35:00,
2013-06-04 15:40:00,79.2,72.9,29.98,SSW,198,4.0,8.0,81,0.00,,,0.01,Wunderground v.1.15,2013-06-04 19:40:00,
2013-06-04 15:45:00,79.3,73.0,29.98,SSE,148,4.0,8.0,81,0.00,,,0.01,Wunderground v.1.15,2013-06-04 19:45:00,
2013-06-04 15:50:00,79.6,73.3,29.98,SSW,210,4.0,8.0,81,0.00,,,0.01,Wunderground v.1.15,2013-06-04 19:50:00,
2013-06-04 16:00:00,79.9,73.2,29.98,SE,139,3.0,6.0,80,0.00,,,0.01,Wunderground v.1.15,2013-06-04 20:00:00,
2013-06-04 16:10:00,78.4,72.4,29.99,SE,141,4.0,4.0,82,0.00,,,0.01,Wunderground v.1.15,2013-06-04 20:10:00,
2013-06-04 16:15:00,78.2,72.6,29.99,ESE,117,4.0,5.0,83,0.00,,,0.01,Wunderground v.1.15,2013-06-04 20:15:00,
2013-06-04 16:20:00,78.0,72.4,29.98,ESE,118,5.0,6.0,83,0.00,,,0.01,Wunderground v.1.15,2013-06-04 20:20:00,
2013-06-04 16:25:00,77.8,72.6,29.98,SE,135,5.0,6.0,84,0.00,,,0.01,Wunderground v.1.15,2013-06-04 20:25:00,
2013-06-04 16:30:00,77.5,72.3,29.98,ESE,108,6.0,6.0,84,0.00,,,0.01,Wunderground v.1.15,2013-06-04 20:30:00,
2013-06-04 16:35:00,77.2,72.0,29.98,SE,129,7.0,7.0,84,0.00,,,0.01,Wunderground v.1.15,2013-06-04 20:35:00,
2013-06-04 16:40:00,76.9,72.0,29.98,East,90,7.0,10.0,85,0.00,,,0.01,Wunderground v.1.15,2013-06-04 20:40:00,
2013-06-04 16:45:00,76.6,72.1,29.98,ENE,64,8.0,10.0,86,0.00,,,0.01,Wunderground v.1.15,2013-06-04 20:45:00,
2013-06-04 16:50:00,76.4,71.9,29.98,East,100,9.0,11.0,86,0.00,,,0.01,Wunderground v.1.15,2013-06-04 20:50:00,
2013-06-04 16:55:00,76.1,71.6,29.98,ESE,109,10.0,13.0,86,0.00,,,0.01,Wunderground v.1.15,2013-06-04 20:55:00,
2013-06-04 17:05:00,75.9,71.4,29.99,ESE,123,11.0,12.0,86,0.00,,,0.01,Wunderground v.1.15,2013-06-04 21:05:00,
2013-06-04 17:10:00,75.8,71.3,29.99,SE,129,10.0,10.0,86,0.00,,,0.01,Wunderground v.1.15,2013-06-04 21:10:00,
2013-06-04 17:15:00,75.7,71.2,29.98,SE,129,10.0,13.0,86,0.00,,,0.01,Wunderground v.1.15,2013-06-04 21:15:00,
2013-06-04 17:20:00,75.7,71.2,29.98,ESE,117,10.0,11.0,86,0.00,,,0.01,Wunderground v.1.15,2013-06-04 21:20:00,
2013-06-04 17:30:00,75.6,71.1,29.99,ESE,115,10.0,10.0,86,0.00,,,0.01,Wunderground v.1.15,2013-06-04 21:30:00,
2013-06-04 17:35:00,75.6,71.1,29.99,SE,143,10.0,12.0,86,0.00,,,0.01,Wunderground v.1.15,2013-06-04 21:35:00,
2013-06-04 17:40:00,75.6,71.1,29.99,SSE,148,9.0,9.0,86,0.00,,,0.01,Wunderground v.1.15,2013-06-04 21:40:00,
2013-06-04 17:45:00,75.5,71.4,29.99,ESE,112,9.0,10.0,87,0.00,,,0.01,Wunderground v.1.15,2013-06-04 21:45:00,
2013-06-04 17:50:00,75.3,70.8,29.99,ESE,117,9.0,9.0,86,0.00,,,0.01,Wunderground v.1.15,2013-06-04 21:50:00,
2013-06-04 17:55:00,75.3,70.8,29.99,East,92,9.0,11.0,86,0.00,,,0.01,Wunderground v.1.15,2013-06-04 21:55:00,
2013-06-04 18:05:00,75.3,70.8,29.99,East,96,9.0,15.0,86,0.00,,,0.01,Wunderground v.1.15,2013-06-04 22:05:00,
2013-06-04 18:10:00,75.3,70.8,29.99,SE,130,9.0,15.0,86,0.00,,,0.01,Wunderground v.1.15,2013-06-04 22:10:00,
2013-06-04 18:15:00,75.3,70.8,30.00,SE,127,9.0,15.0,86,0.00,,,0.01,Wunderground v.1.15,2013-06-04 22:15:00,
2013-06-04 18:20:00,75.3,70.8,30.00,SE,125,8.0,8.0,86,0.00,,,0.01,Wunderground v.1.15,2013-06-04 22:20:00,
2013-06-04 18:25:00,75.2,70.7,29.99,ESE,119,8.0,15.0,86,0.00,,,0.01,Wunderground v.1.15,2013-06-04 22:25:00,
2013-06-04 18:30:00,75.2,70.7,29.99,SSE,147,8.0,8.0,86,0.00,,,0.01,Wunderground v.1.15,2013-06-04 22:30:00,
2013-06-04 18:35:00,75.0,70.5,30.00,SE,130,8.0,15.0,86,0.00,,,0.01,Wunderground v.1.15,2013-06-04 22:35:00,
2013-06-04 18:40:00,75.0,70.5,30.00,SE,130,8.0,8.0,86,0.00,,,0.01,Wunderground v.1.15,2013-06-04 22:40:00,
2013-06-04 18:45:00,75.0,70.5,29.99,East,99,8.0,10.0,86,0.00,,,0.01,Wunderground v.1.15,2013-06-04 22:45:00,
2013-06-04 18:50:00,74.9,70.4,30.00,ESE,120,8.0,15.0,86,0.00,,,0.01,Wunderground v.1.15,2013-06-04 22:50:00,
2013-06-04 18:55:00,74.9,70.4,30.00,SE,129,9.0,15.0,86,0.00,,,0.01,Wunderground v.1.15,2013-06-04 22:55:00,
2013-06-04 19:00:00,74.9,70.4,30.00,ESE,108,9.0,12.0,86,0.00,,,0.01,Wunderground v.1.15,2013-06-04 23:00:00,
2013-06-04 19:05:00,74.8,70.0,30.00,SE,126,9.0,12.0,85,0.00,,,0.01,Wunderground v.1.15,2013-06-04 23:05:00,
2013-06-04 19:10:00,74.9,70.1,30.00,SE,130,8.0,12.0,85,0.00,,,0.01,Wunderground v.1.15,2013-06-04 23:10:00,
2013-06-04 19:15:00,74.9,70.4,30.01,ESE,112,8.0,12.0,86,0.00,,,0.01,Wunderground v.1.15,2013-06-04 23:15:00,
2013-06-04 19:20:00,74.8,69.6,30.01,SE,139,8.0,8.0,84,0.00,,,0.01,Wunderground v.1.15,2013-06-04 23:20:00,
2013-06-04 19:25:00,74.8,69.6,30.01,ESE,116,9.0,9.0,84,0.00,,,0.01,Wunderground v.1.15,2013-06-04 23:25:00,
2013-06-04 19:30:00,74.8,69.6,30.01,ESE,115,10.0,12.0,84,0.00,,,0.01,Wunderground v.1.15,2013-06-04 23:30:00,
2013-06-04 19:35:00,74.8,69.6,30.01,ESE,120,10.0,12.0,84,0.00,,,0.01,Wunderground v.1.15,2013-06-04 23:35:00,
2013-06-04 19:40:00,74.8,69.6,30.01,SE,130,11.0,12.0,84,0.00,,,0.01,Wunderground v.1.15,2013-06-04 23:40:00,
2013-06-04 19:45:00,74.8,69.6,30.01,SE,127,11.0,12.0,84,0.00,,,0.01,Wunderground v.1.15,2013-06-04 23:45:00,
2013-06-04 19:50:00,74.8,69.6,30.01,ESE,105,10.0,10.0,84,0.00,,,0.01,Wunderground v.1.15,2013-06-04 23:50:00,
2013-06-04 19:55:00,74.8,69.6,30.01,East,98,10.0,11.0,84,0.00,,,0.01,Wunderground v.1.15,2013-06-04 23:55:00,
2013-06-04 20:00:00,74.8,69.3,30.02,SE,126,10.0,10.0,83,0.00,,,0.01,Wunderground v.1.15,2013-06-05 00:00:00,
2013-06-04 20:05:00,74.8,68.9,30.02,SE,134,11.0,14.0,82,0.00,,,0.01,Wunderground v.1.15,2013-06-05 00:05:00,
2013-06-04 20:10:00,74.9,69.0,30.02,ESE,115,12.0,15.0,82,0.00,,,0.01,Wunderground v.1.15,2013-06-05 00:10:00,
2013-06-04 20:15:00,74.9,69.0,30.01,ESE,119,12.0,15.0,82,0.00,,,0.01,Wunderground v.1.15,2013-06-05 00:15:00,
2013-06-04 20:20:00,74.8,68.6,30.02,SE,132,13.0,15.0,81,0.00,,,0.01,Wunderground v.1.15,2013-06-05 00:20:00,
2013-06-04 20:25:00,74.8,68.9,30.02,ESE,108,13.0,15.0,82,0.00,,,0.01,Wunderground v.1.15,2013-06-05 00:25:00,
2013-06-04 20:30:00,74.7,69.2,30.02,ESE,120,12.0,15.0,83,0.00,,,0.01,Wunderground v.1.15,2013-06-05 00:30:00,
2013-06-04 20:35:00,74.6,68.7,30.02,SE,139,11.0,15.0,82,0.00,,,0.01,Wunderground v.1.15,2013-06-05 00:35:00,
2013-06-04 20:40:00,74.5,69.0,30.02,ESE,110,11.0,15.0,83,0.00,,,0.01,Wunderground v.1.15,2013-06-05 00:40:00,
2013-06-04 20:45:00,74.4,69.2,30.02,ESE,108,11.0,15.0,84,0.00,,,0.01,Wunderground v.1.15,2013-06-05 00:45:00,
2013-06-04 20:50:00,74.4,68.9,30.02,SE,129,12.0,12.0,83,0.00,,,0.01,Wunderground v.1.15,2013-06-05 00:50:00,
2013-06-04 21:00:00,74.3,68.8,30.02,SE,125,12.0,19.0,83,0.00,,,0.01,Wunderground v.1.15,2013-06-05 01:00:00,
2013-06-04 21:05:00,74.3,68.8,30.03,SE,124,13.0,19.0,83,0.00,,,0.01,Wunderground v.1.15,2013-06-05 01:05:00,
2013-06-04 21:10:00,74.3,68.4,30.03,SE,129,12.0,12.0,82,0.00,,,0.01,Wunderground v.1.15,2013-06-05 01:10:00,
2013-06-04 21:15:00,74.2,68.7,30.03,ESE,111,12.0,19.0,83,0.00,,,0.01,Wunderground v.1.15,2013-06-05 01:15:00,
2013-06-04 21:20:00,74.2,69.1,30.04,ESE,114,12.0,19.0,84,0.00,,,0.01,Wunderground v.1.15,2013-06-05 01:20:00,
2013-06-04 21:25:00,74.1,68.6,30.04,East,89,11.0,19.0,83,0.00,,,0.01,Wunderground v.1.15,2013-06-05 01:25:00,
2013-06-04 21:35:00,74.0,68.9,30.04,SE,127,10.0,14.0,84,0.00,,,0.01,Wunderground v.1.15,2013-06-05 01:35:00,
2013-06-04 21:40:00,73.9,68.8,30.05,ESE,120,10.0,19.0,84,0.00,,,0.01,Wunderground v.1.15,2013-06-05 01:40:00,
2013-06-04 21:45:00,73.8,69.0,30.05,ESE,102,9.0,19.0,85,0.00,,,0.01,Wunderground v.1.15,2013-06-05 01:45:00,
2013-06-04 21:50:00,73.7,68.9,30.05,ESE,117,8.0,19.0,85,0.00,,,0.01,Wunderground v.1.15,2013-06-05 01:50:00,
2013-06-04 21:55:00,73.6,68.8,30.05,SE,132,8.0,19.0,85,0.00,,,0.01,Wunderground v.1.15,2013-06-05 01:55:00,
2013-06-04 22:00:00,73.6,68.8,30.05,East,95,8.0,19.0,85,0.00,,,0.01,Wunderground v.1.15,2013-06-05 02:00:00,
2013-06-04 22:05:00,73.5,68.7,30.06,SE,124,7.0,19.0,85,0.00,,,0.01,Wunderground v.1.15,2013-06-05 02:05:00,
2013-06-04 22:10:00,73.4,68.6,30.05,East,90,7.0,19.0,85,0.00,,,0.01,Wunderground v.1.15,2013-06-05 02:10:00,
2013-06-04 22:15:00,73.4,68.6,30.06,ESE,108,8.0,19.0,85,0.00,,,0.01,Wunderground v.1.15,2013-06-05 02:15:00,
2013-06-04 22:20:00,73.4,68.6,30.06,ENE,57,8.0,19.0,85,0.00,,,0.01,Wunderground v.1.15,2013-06-05 02:20:00,
2013-06-04 22:25:00,73.3,68.2,30.06,East,91,9.0,19.0,84,0.00,,,0.01,Wunderground v.1.15,2013-06-05 02:25:00,
2013-06-04 22:30:00,73.3,68.2,30.06,ESE,117,9.0,9.0,84,0.00,,,0.01,Wunderground v.1.15,2013-06-05 02:30:00,
2013-06-04 22:35:00,73.3,68.2,30.06,ESE,109,9.0,19.0,84,0.00,,,0.01,Wunderground v.1.15,2013-06-05 02:35:00,
2013-06-04 22:40:00,73.3,68.5,30.06,ENE,59,9.0,19.0,85,0.00,,,0.01,Wunderground v.1.15,2013-06-05 02:40:00,
2013-06-04 22:45:00,73.2,68.4,30.06,East,84,9.0,19.0,85,0.00,,,0.01,Wunderground v.1.15,2013-06-05 02:45:00,
2013-06-04 22:50:00,73.2,68.4,30.06,East,82,9.0,19.0,85,0.00,,,0.01,Wunderground v.1.15,2013-06-05 02:50:00,
2013-06-04 22:55:00,73.1,68.7,30.06,East,87,8.0,19.0,86,0.00,,,0.01,Wunderground v.1.15,2013-06-05 02:55:00,
2013-06-04 23:00:00,73.0,68.2,30.06,ENE,70,9.0,9.0,85,0.00,,,0.01,Wunderground v.1.15,2013-06-05 03:00:00,
2013-06-04 23:05:00,72.9,68.1,30.07,East,85,10.0,10.0,85,0.00,,,0.01,Wunderground v.1.15,2013-06-05 03:05:00,
2013-06-04 23:10:00,72.9,68.5,30.06,East,98,9.0,9.0,86,0.00,,,0.01,Wunderground v.1.15,2013-06-05 03:10:00,
2013-06-04 23:15:00,72.9,68.5,30.06,East,83,9.0,10.0,86,0.00,,,0.01,Wunderground v.1.15,2013-06-05 03:15:00,
2013-06-04 23:20:00,72.9,68.5,30.06,ESE,108,9.0,15.0,86,0.00,,,0.01,Wunderground v.1.15,2013-06-05 03:20:00,
2013-06-04 23:25:00,72.8,68.4,30.06,ENE,68,10.0,15.0,86,0.00,,,0.01,Wunderground v.1.15,2013-06-05 03:25:00,
2013-06-04 23:30:00,72.8,68.4,30.06,ESE,121,10.0,10.0,86,0.00,,,0.01,Wunderground v.1.15,2013-06-05 03:30:00,
2013-06-04 23:35:00,72.7,68.3,30.06,ENE,73,9.0,15.0,86,0.00,,,0.01,Wunderground v.1.15,2013-06-05 03:35:00,
2013-06-04 23:40:00,72.7,68.3,30.06,East,80,9.0,15.0,86,0.00,,,0.01,Wunderground v.1.15,2013-06-05 03:40:00,
2013-06-04 23:45:00,72.7,68.3,30.07,East,84,9.0,15.0,86,0.00,,,0.01,Wunderground v.1.15,2013-06-05 03:45:00,
2013-06-04 23:50:00,72.7,68.3,30.07,East,84,9.0,15.0,86,0.00,,,0.01,Wunderground v.1.15,2013-06-05 03:50:00,
2013-06-04 23:55:00,72.7,68.3,30.06,ENE,63,9.0,15.0,86,0.00,,,0.01,Wunderground v.1.15,2013-06-05 03:55:00,